[ hide orbit diagram ]
For accurate long-term ephemerides, please instead use our Horizons system.This orbit viewer was implemented using two-body methods, and hence should not be used for determining accurate long-term trajectories (over several years or decades) or planetary encounter circumstances.
Orbital Elements at Epoch 2459000.5 (2020-May-31.0) TDB
Reference: JPL 10 (heliocentric ecliptic J2000)
Element | Value | Uncertainty (1-sigma) | Units |
e | .2826805257463513 | 8.2135e-08 | |
a | 3.947418721183592 | 8.1479e-08 | au |
q | 2.831560321738425 | 3.6586e-07 | au |
i | 9.84958538741092 | 6.5327e-06 | deg |
node | 285.4016260375227 | 6.4743e-05 | deg |
peri | 152.1759742669902 | 6.9856e-05 | deg |
M | 309.2328954153109 | 2.1924e-05 | deg |
tp | 2459404.469071106210 (2021-Jul-08.96907111) | 0.00018147 | TDB |
period | 2864.627927630434 7.84 | 8.8693e-05 2.428e-07 | d yr |
n | .1256707708975612 | 3.891e-09 | deg/d |
Q | 5.063277120628761 | 1.0451e-07 | au |
|
| | Orbit Determination Parameters
Additional Information
|
[ show covariance matrix ]
Physical Parameter Table
Parameter |
Symbol |
Value |
Units |
Sigma |
Reference |
Notes |
absolute magnitude |
H |
15.4 |
|
n/a |
MPO336323 |
|
|
437524 (2013 YX105) Discovered 2005-Dec-10 by Spacewatch at Kitt Peak |
Reference: | Last Updated: 2015-06-04 |
|
|